Time,TemperatureF,DewpointF,PressureIn,WindDirection,WindDirectionDegrees,WindSpeedMPH,WindSpeedGustMPH,Humidity,HourlyPrecipIn,Conditions,Clouds,dailyrainin,SoftwareType,DateUTC
2013-08-11 00:01:00,79.1,78.0,30.13,NNE,17,0.0,-999.0,95,-99.99,,,0.00,weatherlink.com 1.10,2013-08-11 04:01:00,
2013-08-11 00:16:00,78.9,77.0,30.13,NNE,17,0.0,-999.0,95,-99.99,,,0.00,weatherlink.com 1.10,2013-08-11 04:16:00,
2013-08-11 00:31:00,78.8,78.0,30.13,NNE,17,0.0,-999.0,96,-99.99,,,0.00,weatherlink.com 1.10,2013-08-11 04:31:00,
2013-08-11 00:46:00,79.0,78.0,30.13,NNW,342,0.0,-999.0,96,-99.99,,,0.00,weatherlink.com 1.10,2013-08-11 04:46:00,
2013-08-11 01:01:00,79.2,78.0,30.13,NNW,342,0.0,-999.0,96,-99.99,,,0.00,weatherlink.com 1.10,2013-08-11 05:01:00,
2013-08-11 01:16:00,79.2,78.0,30.12,NNW,342,0.0,-999.0,96,-99.99,,,0.00,weatherlink.com 1.10,2013-08-11 05:16:00,
2013-08-11 01:31:00,78.7,78.0,30.12,NNW,342,0.0,-999.0,96,-99.99,,,0.00,weatherlink.com 1.10,2013-08-11 05:31:00,
2013-08-11 01:46:00,78.7,78.0,30.12,NNW,342,0.0,-999.0,97,-99.99,,,0.00,weatherlink.com 1.10,2013-08-11 05:46:00,
2013-08-11 02:01:00,78.6,78.0,30.12,NNW,342,0.0,-999.0,97,-99.99,,,0.00,weatherlink.com 1.10,2013-08-11 06:01:00,
2013-08-11 02:16:00,78.5,78.0,30.12,NNW,342,0.0,-999.0,97,-99.99,,,0.00,weatherlink.com 1.10,2013-08-11 06:16:00,
2013-08-11 02:31:00,78.3,77.0,30.12,NNW,342,0.0,-999.0,97,-99.99,,,0.00,weatherlink.com 1.10,2013-08-11 06:31:00,
2013-08-11 02:46:00,78.3,77.0,30.11,NNW,342,0.0,-999.0,97,-99.99,,,0.00,weatherlink.com 1.10,2013-08-11 06:46:00,
2013-08-11 03:01:00,78.1,77.0,30.11,NNW,342,0.0,-999.0,97,-99.99,,,0.00,weatherlink.com 1.10,2013-08-11 07:01:00,
2013-08-11 03:16:00,78.1,77.0,30.11,NNW,342,0.0,-999.0,97,-99.99,,,0.00,weatherlink.com 1.10,2013-08-11 07:16:00,
2013-08-11 03:46:00,77.9,77.0,30.11,NNW,341,0.0,-999.0,97,-99.99,,,0.00,weatherlink.com 1.10,2013-08-11 07:46:00,
2013-08-11 03:56:00,78.0,77.4,30.11,NNW,347,0.0,0.0,98,0.00,,,0.00,Wunderground v.1.15,2013-08-11 07:56:00,
2013-08-11 04:01:00,77.8,77.0,30.11,NNW,341,0.0,-999.0,97,-99.99,,,0.00,weatherlink.com 1.10,2013-08-11 08:01:00,
2013-08-11 04:11:00,77.8,76.9,30.12,NNW,347,0.0,0.0,97,0.00,,,0.00,Wunderground v.1.15,2013-08-11 08:11:00,
2013-08-11 04:16:00,77.7,77.0,30.11,NNW,341,0.0,-999.0,97,-99.99,,,0.00,weatherlink.com 1.10,2013-08-11 08:16:00,
2013-08-11 04:31:00,77.5,77.0,30.11,NNW,341,0.0,-999.0,98,-99.99,,,0.00,weatherlink.com 1.10,2013-08-11 08:31:00,
2013-08-11 04:41:00,77.5,76.9,30.11,North,349,0.0,0.0,98,0.00,,,0.00,Wunderground v.1.15,2013-08-11 08:41:00,
2013-08-11 04:46:00,77.4,77.0,30.11,NNW,342,0.0,-999.0,98,-99.99,,,0.00,weatherlink.com 1.10,2013-08-11 08:46:00,
2013-08-11 04:51:00,77.4,76.8,30.11,NNW,348,0.0,0.0,98,0.00,,,0.00,Wunderground v.1.15,2013-08-11 08:51:00,
2013-08-11 05:01:00,77.1,76.5,30.11,North,349,0.0,0.0,98,0.00,,,0.00,Wunderground v.1.15,2013-08-11 09:01:00,
2013-08-11 05:06:00,77.0,76.4,30.11,North,349,0.0,0.0,98,0.00,,,0.00,Wunderground v.1.15,2013-08-11 09:06:00,
2013-08-11 05:11:00,77.0,76.4,30.11,NNW,348,0.0,0.0,98,0.00,,,0.00,Wunderground v.1.15,2013-08-11 09:11:00,
2013-08-11 05:16:00,76.9,76.3,30.11,North,349,0.0,0.0,98,0.00,,,0.00,Wunderground v.1.15,2013-08-11 09:16:00,
2013-08-11 05:21:00,77.0,76.4,30.11,North,349,0.0,0.0,98,0.00,,,0.00,Wunderground v.1.15,2013-08-11 09:21:00,
2013-08-11 05:26:00,76.9,76.3,30.11,NNE,13,0.0,0.0,98,0.00,,,0.00,Wunderground v.1.15,2013-08-11 09:26:00,
2013-08-11 05:36:00,76.8,76.2,30.11,NNE,12,0.0,0.0,98,0.00,,,0.00,Wunderground v.1.15,2013-08-11 09:36:00,
2013-08-11 05:41:00,76.8,76.2,30.11,NNE,12,0.0,0.0,98,0.00,,,0.00,Wunderground v.1.15,2013-08-11 09:41:00,
2013-08-11 05:46:00,76.7,76.1,30.12,NNE,13,0.0,0.0,98,0.00,,,0.00,Wunderground v.1.15,2013-08-11 09:46:00,
2013-08-11 05:51:00,76.7,76.1,30.12,NNE,12,0.0,0.0,98,0.00,,,0.00,Wunderground v.1.15,2013-08-11 09:51:00,
2013-08-11 06:01:00,76.6,76.0,30.12,NNE,12,0.0,0.0,98,0.00,,,0.00,Wunderground v.1.15,2013-08-11 10:01:00,
2013-08-11 06:06:00,76.5,75.9,30.12,NNE,13,0.0,0.0,98,0.00,,,0.00,Wunderground v.1.15,2013-08-11 10:06:00,
2013-08-11 06:16:00,76.4,75.8,30.12,NNE,12,0.0,0.0,98,0.00,,,0.00,Wunderground v.1.15,2013-08-11 10:16:00,
2013-08-11 06:21:00,76.3,75.7,30.12,NNE,12,0.0,0.0,98,0.00,,,0.00,Wunderground v.1.15,2013-08-11 10:21:00,
2013-08-11 06:31:00,76.0,75.0,30.12,NNE,19,0.0,-999.0,98,-99.99,,,0.00,weatherlink.com 1.10,2013-08-11 10:31:00,
2013-08-11 06:41:00,75.9,75.3,30.13,NNE,12,0.0,0.0,98,0.00,,,0.00,Wunderground v.1.15,2013-08-11 10:41:00,
2013-08-11 06:46:00,75.7,75.0,30.13,NNE,19,0.0,-999.0,98,-99.99,,,0.00,weatherlink.com 1.10,2013-08-11 10:46:00,
2013-08-11 06:56:00,75.6,75.0,30.13,NNE,13,0.0,0.0,98,0.00,,,0.00,Wunderground v.1.15,2013-08-11 10:56:00,
2013-08-11 07:01:00,75.4,75.0,30.13,NNE,19,0.0,-999.0,98,-99.99,,,0.00,weatherlink.com 1.10,2013-08-11 11:01:00,
2013-08-11 07:11:00,75.5,74.9,30.14,NNE,13,0.0,0.0,98,0.00,,,0.00,Wunderground v.1.15,2013-08-11 11:11:00,
2013-08-11 07:16:00,75.6,75.0,30.14,NNE,12,0.0,0.0,98,0.00,,,0.00,Wunderground v.1.15,2013-08-11 11:16:00,
2013-08-11 07:21:00,75.7,75.1,30.14,NNE,12,0.0,0.0,98,0.00,,,0.00,Wunderground v.1.15,2013-08-11 11:21:00,
2013-08-11 07:31:00,75.8,75.2,30.14,NNE,12,0.0,0.0,98,0.00,,,0.00,Wunderground v.1.15,2013-08-11 11:31:00,
2013-08-11 07:36:00,75.9,75.3,30.14,NNE,12,0.0,0.0,98,0.00,,,0.00,Wunderground v.1.15,2013-08-11 11:36:00,
2013-08-11 07:46:00,76.1,75.5,30.14,NNE,13,0.0,0.0,98,0.00,,,0.00,Wunderground v.1.15,2013-08-11 11:46:00,
2013-08-11 07:51:00,76.2,75.6,30.14,NNE,13,0.0,0.0,98,0.00,,,0.00,Wunderground v.1.15,2013-08-11 11:51:00,
2013-08-11 07:56:00,76.3,75.7,30.14,NNE,13,0.0,0.0,98,0.00,,,0.00,Wunderground v.1.15,2013-08-11 11:56:00,
2013-08-11 08:01:00,76.5,75.9,30.14,NNE,12,0.0,0.0,98,0.00,,,0.00,Wunderground v.1.15,2013-08-11 12:01:00,
2013-08-11 08:06:00,76.6,76.0,30.14,NNE,12,0.0,0.0,98,0.00,,,0.00,Wunderground v.1.15,2013-08-11 12:06:00,
2013-08-11 08:11:00,76.8,76.2,30.14,NNE,13,0.0,0.0,98,0.00,,,0.00,Wunderground v.1.15,2013-08-11 12:11:00,
2013-08-11 08:16:00,76.7,76.0,30.14,NNE,19,0.0,-999.0,98,-99.99,,,0.00,weatherlink.com 1.10,2013-08-11 12:16:00,
2013-08-11 08:26:00,77.7,77.1,30.15,NNE,33,0.0,0.0,98,0.00,,,0.00,Wunderground v.1.15,2013-08-11 12:26:00,
2013-08-11 08:31:00,78.3,77.7,30.15,NNE,33,0.0,0.0,98,0.00,,,0.00,Wunderground v.1.15,2013-08-11 12:31:00,
2013-08-11 08:36:00,78.7,77.8,30.15,NNE,33,0.0,0.0,97,0.00,,,0.00,Wunderground v.1.15,2013-08-11 12:36:00,
2013-08-11 08:46:00,79.9,78.7,30.16,NE,53,0.0,0.0,96,0.00,,,0.00,Wunderground v.1.15,2013-08-11 12:46:00,
2013-08-11 08:51:00,80.5,78.6,30.16,NW,304,0.0,1.0,94,0.00,,,0.00,Wunderground v.1.15,2013-08-11 12:51:00,
2013-08-11 09:01:00,81.7,79.0,30.15,NE,44,2.0,-999.0,91,-99.99,,,0.00,weatherlink.com 1.10,2013-08-11 13:01:00,
2013-08-11 09:16:00,83.1,80.0,30.16,WSW,244,0.0,-999.0,91,-99.99,,,0.00,weatherlink.com 1.10,2013-08-11 13:16:00,
2013-08-11 09:32:00,84.7,79.0,30.16,NNW,348,0.0,-999.0,84,-99.99,,,0.00,weatherlink.com 1.10,2013-08-11 13:32:00,
2013-08-11 09:47:00,87.3,80.0,30.16,SSE,155,1.0,-999.0,79,-99.99,,,0.00,weatherlink.com 1.10,2013-08-11 13:47:00,
2013-08-11 10:02:00,87.2,80.0,30.16,NE,50,0.0,-999.0,79,-99.99,,,0.00,weatherlink.com 1.10,2013-08-11 14:02:00,
2013-08-11 10:17:00,88.0,80.0,30.16,West,263,0.0,-999.0,76,-99.99,,,0.00,weatherlink.com 1.10,2013-08-11 14:17:00,
2013-08-11 10:32:00,88.6,81.0,30.16,ESE,117,0.0,-999.0,77,-99.99,,,0.00,weatherlink.com 1.10,2013-08-11 14:32:00,
2013-08-11 10:47:00,89.2,79.0,30.16,ENE,69,1.0,-999.0,72,-99.99,,,0.00,weatherlink.com 1.10,2013-08-11 14:47:00,
2013-08-11 11:02:00,89.5,79.0,30.15,East,88,0.0,-999.0,70,-99.99,,,0.00,weatherlink.com 1.10,2013-08-11 15:02:00,
2013-08-11 11:47:00,89.7,76.0,30.15,NNW,330,0.0,-999.0,64,-99.99,,,0.00,weatherlink.com 1.10,2013-08-11 15:47:00,
2013-08-11 12:02:00,90.0,75.0,30.15,West,265,0.0,-999.0,61,-99.99,,,0.00,weatherlink.com 1.10,2013-08-11 16:02:00,
2013-08-11 12:47:00,89.5,80.0,30.14,ESE,117,2.0,-999.0,74,-99.99,,,0.00,weatherlink.com 1.10,2013-08-11 16:47:00,
2013-08-11 13:02:00,90.2,79.0,30.14,NE,53,1.0,-999.0,70,-99.99,,,0.00,weatherlink.com 1.10,2013-08-11 17:02:00,
2013-08-11 13:17:00,89.6,79.0,30.13,East,86,4.0,-999.0,70,-99.99,,,0.00,weatherlink.com 1.10,2013-08-11 17:17:00,
2013-08-11 13:32:00,90.0,80.0,30.13,NW,309,1.0,-999.0,72,-99.99,,,0.00,weatherlink.com 1.10,2013-08-11 17:32:00,
2013-08-11 13:47:00,89.6,79.0,30.13,SE,127,0.0,-999.0,71,-99.99,,,0.00,weatherlink.com 1.10,2013-08-11 17:47:00,
2013-08-11 14:02:00,89.5,79.0,30.12,East,82,3.0,-999.0,71,-99.99,,,0.00,weatherlink.com 1.10,2013-08-11 18:02:00,
2013-08-11 14:17:00,89.0,79.0,30.12,WNW,290,0.0,-999.0,72,-99.99,,,0.00,weatherlink.com 1.10,2013-08-11 18:17:00,
2013-08-11 14:47:00,89.5,79.0,30.12,West,274,0.0,-999.0,71,-99.99,,,0.00,weatherlink.com 1.10,2013-08-11 18:47:00,
2013-08-11 15:02:00,88.8,78.0,30.11,NW,308,1.0,-999.0,71,-99.99,,,0.00,weatherlink.com 1.10,2013-08-11 19:02:00,
2013-08-11 15:32:00,89.0,79.0,30.10,NE,40,1.0,-999.0,73,-99.99,,,0.00,weatherlink.com 1.10,2013-08-11 19:32:00,
2013-08-11 15:47:00,88.9,79.0,30.10,NNE,32,1.0,-999.0,73,-99.99,,,0.00,weatherlink.com 1.10,2013-08-11 19:47:00,
2013-08-11 16:17:00,87.5,77.0,30.10,ESE,110,4.0,-999.0,71,-99.99,,,0.00,weatherlink.com 1.10,2013-08-11 20:17:00,
2013-08-11 16:32:00,87.9,77.0,30.09,WNW,286,3.0,-999.0,71,-99.99,,,0.00,weatherlink.com 1.10,2013-08-11 20:32:00,
2013-08-11 16:47:00,87.5,77.0,30.09,NE,37,3.0,-999.0,71,-99.99,,,0.00,weatherlink.com 1.10,2013-08-11 20:47:00,
2013-08-11 17:02:00,87.0,77.0,30.08,SSW,203,3.0,-999.0,71,-99.99,,,0.00,weatherlink.com 1.10,2013-08-11 21:02:00,
2013-08-11 17:17:00,86.5,77.0,30.07,NNW,345,0.0,-999.0,72,-99.99,,,0.00,weatherlink.com 1.10,2013-08-11 21:17:00,
2013-08-11 17:47:00,85.8,77.0,30.07,SSW,198,1.0,-999.0,74,-99.99,,,0.00,weatherlink.com 1.10,2013-08-11 21:47:00,
2013-08-11 18:02:00,84.8,77.0,30.07,NNW,334,0.0,-999.0,77,-99.99,,,0.00,weatherlink.com 1.10,2013-08-11 22:02:00,
2013-08-11 18:17:00,84.4,77.0,30.07,SE,141,2.0,-999.0,77,-99.99,,,0.00,weatherlink.com 1.10,2013-08-11 22:17:00,
2013-08-11 18:32:00,84.1,77.0,30.07,ENE,69,0.0,-999.0,79,-99.99,,,0.00,weatherlink.com 1.10,2013-08-11 22:32:00,
2013-08-11 18:47:00,83.9,77.0,30.07,ENE,69,1.0,-999.0,80,-99.99,,,0.00,weatherlink.com 1.10,2013-08-11 22:47:00,
2013-08-11 19:17:00,83.0,77.0,30.07,ENE,78,1.0,-999.0,83,-99.99,,,0.00,weatherlink.com 1.10,2013-08-11 23:17:00,
2013-08-11 19:32:00,82.6,77.0,30.07,NW,314,1.0,-999.0,83,-99.99,,,0.00,weatherlink.com 1.10,2013-08-11 23:32:00,
2013-08-11 19:47:00,82.3,77.0,30.07,NE,40,1.0,-999.0,83,-99.99,,,0.00,weatherlink.com 1.10,2013-08-11 23:47:00,
2013-08-11 20:02:00,81.7,77.0,30.07,ENE,69,0.0,-999.0,86,-99.99,,,0.00,weatherlink.com 1.10,2013-08-12 00:02:00,
2013-08-11 20:32:00,80.8,77.0,30.09,NNE,19,0.0,-999.0,87,-99.99,,,0.00,weatherlink.com 1.10,2013-08-12 00:32:00,
2013-08-11 20:47:00,80.6,77.0,30.09,NNE,27,0.0,-999.0,89,-99.99,,,0.00,weatherlink.com 1.10,2013-08-12 00:47:00,
2013-08-11 21:02:00,80.0,77.0,30.09,NE,51,0.0,-999.0,90,-99.99,,,0.00,weatherlink.com 1.10,2013-08-12 01:02:00,
2013-08-11 21:17:00,79.8,77.0,30.10,NNW,342,0.0,-999.0,91,-99.99,,,0.00,weatherlink.com 1.10,2013-08-12 01:17:00,
2013-08-11 21:32:00,79.5,77.0,30.10,NNW,341,0.0,-999.0,91,-99.99,,,0.00,weatherlink.com 1.10,2013-08-12 01:32:00,
2013-08-11 22:18:00,78.8,77.0,30.12,NNW,348,0.0,-999.0,93,-99.99,,,0.00,weatherlink.com 1.10,2013-08-12 02:18:00,
2013-08-11 22:33:00,78.5,76.0,30.12,NNW,348,0.0,-999.0,93,-99.99,,,0.00,weatherlink.com 1.10,2013-08-12 02:33:00,
2013-08-11 22:48:00,78.3,76.0,30.12,NNW,348,0.0,-999.0,93,-99.99,,,0.00,weatherlink.com 1.10,2013-08-12 02:48:00,
2013-08-11 23:18:00,77.7,76.0,30.12,NNW,348,0.0,-999.0,94,-99.99,,,0.00,weatherlink.com 1.10,2013-08-12 03:18:00,
2013-08-11 23:33:00,77.6,76.0,30.12,NNW,348,0.0,-999.0,95,-99.99,,,0.00,weatherlink.com 1.10,2013-08-12 03:33:00,
2013-08-11 23:48:00,77.5,76.0,30.12,NNW,348,0.0,-999.0,95,-99.99,,,0.00,weatherlink.com 1.10,2013-08-12 03:48:00,